DW1973 Weather Reports


Display with metric or nautical units.
time (UTC)temp
F
wind
direction
speed
MPH
gust
MPH
rain 1hr
in
rain 24hr
in
rain mn
in
humidity
%
barometer
mb
20260507093432 35 261 0.0 0.0 0.00 0.00 0.00 81 1015.1
20260507092922 35 260 0.0 0.0 0.00 0.00 0.00 80 1015.1
20260507092456 35 263 0.0 0.0 0.00 0.00 0.00 80 1015.1
20260507091924 35 273 0.0 0.0 0.00 0.00 0.00 80 1015.2
20260507091416 35 257 0.0 0.0 0.00 0.00 0.00 79 1015.3
20260507090925 35 255 0.0 0.0 0.00 0.00 0.00 78 1015.3
20260507090432 35 257 0.0 0.0 0.00 0.00 0.00 78 1015.2
20260507085925 35 258 0.0 0.0 0.00 0.00 0.00 78 1015.2
20260507085434 35 263 0.0 0.0 0.00 0.00 0.00 78 1015.2
20260507084923 36 265 0.0 0.0 0.00 0.00 0.00 77 1015.3
20260507084441 36 263 0.0 0.0 0.00 0.00 0.00 77 1015.3
20260507083946 36 259 0.0 0.0 0.00 0.00 0.00 77 1015.3
20260507083433 36 265 0.0 0.0 0.00 0.00 0.00 78 1015.3
20260507082924 36 265 0.0 0.0 0.00 0.00 0.00 78 1015.3
20260507082430 36 264 0.0 0.0 0.00 0.00 0.00 78 1015.2
20260507081919 36 265 0.0 0.0 0.00 0.00 0.00 78 1015.3
20260507081432 36 263 0.0 0.0 0.00 0.00 0.00 78 1015.3
20260507080923 36 264 0.0 0.0 0.00 0.00 0.00 79 1015.2
20260507080431 36 260 0.0 0.0 0.00 0.00 0.00 78 1015.3
20260507075920 36 269 0.0 0.0 0.00 0.00 0.00 78 1015.3
20260507075427 36 271 0.0 0.0 0.00 0.00 0.00 78 1015.3
20260507074934 36 274 0.0 0.0 0.00 0.00 0.00 77 1015.3
20260507074421 36 271 0.0 0.0 0.00 0.00 0.00 77 1015.2
20260507073930 36 273 0.0 0.0 0.00 0.00 0.00 77 1015.3
20260507073418 36 273 0.0 0.0 0.00 0.00 0.00 77 1015.3
20260507072924 36 273 0.0 0.0 0.00 0.00 0.00 77 1015.3
20260507072430 36 271 0.0 0.0 0.00 0.00 0.00 76 1015.3
20260507071919 36 251 0.0 0.0 0.00 0.00 0.00 75 1015.3
20260507071431 37 250 0.0 0.0 0.00 0.00 0.00 75 1015.4
20260507070937 37 261 0.0 0.0 0.00 0.00 0.00 75 1015.4
20260507070446 37 263 0.0 0.0 0.00 0.00 0.00 75 1015.5
20260507065915 37 265 0.0 0.0 0.00 0.00 0.00 74 1015.5
20260507065422 37 263 0.0 0.0 0.00 0.00 0.00 74 1015.4
20260507064932 37 246 0.0 0.0 0.00 0.00 0.00 73 1015.5
20260507064425 37 250 0.0 0.0 0.00 0.00 0.00 73 1015.5
20260507063932 37 250 0.0 0.0 0.00 0.00 0.00 73 1015.5
20260507063441 37 258 0.0 0.0 0.00 0.00 0.00 72 1015.6
20260507062927 38 110 0.0 0.0 0.00 0.00 0.00 72 1015.6
20260507062434 38 103 0.0 0.0 0.00 0.00 0.00 71 1015.6
20260507061943 38 114 0.0 0.0 0.00 0.00 0.00 71 1015.6
20260507061429 38 115 0.0 0.0 0.00 0.00 0.00 71 1015.7
20260507060935 38 108 0.0 0.0 0.00 0.00 0.00 71 1015.6
20260507060423 38 114 0.0 0.0 0.00 0.00 0.00 70 1015.6
20260507055929 38 101 0.0 0.0 0.00 0.00 0.00 70 1015.6
20260507055416 38 90 0.0 0.0 0.00 0.00 0.00 70 1015.6
20260507054924 39 84 0.0 0.0 0.00 0.00 0.00 69 1015.7
20260507054431 39 82 0.0 0.0 0.00 0.00 0.00 69 1015.7
20260507053920 39 82 0.0 0.0 0.00 0.00 0.00 69 1015.6
20260507053436 39 360 0.0 0.0 0.00 0.00 0.00 68 1015.6
20260507052921 39 84 0.0 0.0 0.00 0.00 0.00 68 1015.8
20260507052429 40 69 0.0 0.0 0.00 0.00 0.00 67 1015.6
20260507051927 40 360 0.0 0.0 0.00 0.00 0.00 67 1015.6
20260507051434 40 65 0.0 0.0 0.00 0.00 0.00 67 1015.8
20260507050921 40 72 0.0 0.0 0.00 0.00 0.00 67 1015.8
20260507050434 40 62 0.0 0.0 0.00 0.00 0.00 67 1015.8
20260507050003 41 360 0.0 0.0 0.00 0.00 0.00 66 1015.7
20260507045429 41 360 0.0 0.0 0.00 0.00 0.00 66 1015.6
20260507044917 41 360 0.0 0.0 0.00 0.00 0.00 66 1015.7
20260507044451 41 55 0.0 0.0 0.00 0.00 0.00 65 1015.8
20260507043920 41 54 0.0 0.0 0.00 0.00 0.00 65 1015.6
20260507042932 42 51 0.0 0.0 0.00 0.00 0.00 64 1015.6
20260507042422 42 360 0.0 0.0 0.00 0.00 0.00 62 1015.6
20260507041928 42 40 0.0 0.0 0.00 0.00 0.00 62 1015.7
20260507041439 42 41 0.0 0.0 0.00 0.00 0.00 61 1015.6
20260507040922 43 42 0.0 0.0 0.00 0.00 0.00 60 1015.6
20260507040432 43 42 0.0 0.0 0.00 0.00 0.00 60 1015.6
20260507035919 43 42 0.0 0.0 0.00 0.00 0.00 59 1015.6
20260507035426 43 40 0.0 0.0 0.00 0.00 0.00 59 1015.6
20260507034937 43 40 0.0 0.0 0.00 0.00 0.00 59 1015.6
20260507034456 43 39 0.0 0.0 0.00 0.00 0.00 58 1015.6
20260507033942 44 38 0.0 0.0 0.00 0.00 0.00 58 1015.7
20260507033429 44 34 0.0 0.0 0.00 0.00 0.00 58 1015.8
20260507032921 44 32 0.0 0.0 0.00 0.00 0.00 58 1015.8
20260507032429 44 32 0.0 0.0 0.00 0.00 0.00 58 1015.8
20260507031934 44 34 0.0 0.0 0.00 0.00 0.00 57 1015.8
20260507031442 44 30 0.0 0.0 0.00 0.00 0.00 56 1015.7
20260507030953 45 34 0.0 0.0 0.00 0.00 0.00 55 1015.6
20260507030420 45 34 0.0 0.0 0.00 0.00 0.00 55 1015.6
20260507025931 45 31 0.0 0.0 0.00 0.00 0.00 54 1015.5
20260507025438 45 38 0.0 0.0 0.00 0.00 0.00 54 1015.6
20260507024949 45 35 0.0 0.0 0.00 0.00 0.00 53 1015.5
20260507024417 46 32 0.0 0.0 0.00 0.00 0.00 53 1015.6
20260507023924 46 37 0.0 0.0 0.00 0.00 0.00 53 1015.6
20260507023431 46 34 0.0 0.0 0.00 0.00 0.00 52 1015.5
20260507022922 46 26 0.0 0.0 0.00 0.00 0.00 52 1015.4
20260507022430 46 26 0.0 0.0 0.00 0.00 0.00 52 1015.2
20260507021917 47 24 0.0 2.0 0.00 0.00 0.00 51 1015.2
20260507021445 47 28 0.0 2.0 0.00 0.00 0.00 51 1015.0
20260507020959 47 32 1.0 3.0 0.00 0.00 0.00 50 1015.0
20260507020445 47 360 1.0 3.0 0.00 0.00 0.00 50 1014.9
20260507015936 47 32 1.0 2.0 0.00 0.00 0.00 50 1015.0
20260507015425 47 24 1.0 4.0 0.00 0.00 0.00 50 1014.9
20260507014933 48 24 2.0 4.0 0.00 0.00 0.00 49 1014.9
20260507014444 48 22 2.0 4.0 0.00 0.00 0.00 49 1014.8
20260507013951 48 26 1.0 4.0 0.00 0.00 0.00 49 1014.9
20260507013418 48 24 1.0 4.0 0.00 0.00 0.00 49 1014.8
20260507012922 48 23 2.0 4.0 0.00 0.00 0.00 49 1014.9
20260507012429 48 21 1.0 3.0 0.00 0.00 0.00 48 1014.8
20260507011918 49 19 2.0 3.0 0.00 0.00 0.00 48 1014.8
20260507011432 49 17 2.0 5.0 0.00 0.00 0.00 48 1014.8
20260507010430 49 18 2.0 6.0 0.00 0.00 0.00 47 1014.7
20260507005941 49 18 2.0 6.0 0.00 0.00 0.00 47 1014.6
20260507005428 50 18 2.0 6.0 0.00 0.00 0.00 47 1014.6
20260507004918 50 19 2.0 6.0 0.00 0.00 0.00 47 1014.6
20260507004430 50 17 4.0 6.0 0.00 0.00 0.00 46 1014.6
20260507003918 50 17 4.0 7.0 0.00 0.00 0.00 46 1014.5
20260507003426 51 17 4.0 6.0 0.00 0.00 0.00 46 1014.6
20260507002952 51 18 3.0 8.0 0.00 0.00 0.00 46 1014.6
20260507002440 51 18 3.0 8.0 0.00 0.00 0.00 46 1014.5
20260507001948 51 20 2.0 10.0 0.00 0.00 0.00 46 1014.5
20260507001417 51 20 5.0 10.0 0.00 0.00 0.00 44 1014.4
20260507000923 52 17 3.0 9.0 0.00 0.00 0.00 45 1014.3
20260507000432 52 19 5.0 9.0 0.00 0.00 0.00 44 1014.4
20260506235919 52 22 4.0 10.0 0.00 0.00 0.00 44 1014.1
20260506235428 52 17 5.0 10.0 0.00 0.00 0.00 44 1014.1
20260506234938 52 19 4.0 9.0 0.00 0.00 0.00 44 1014.1
20260506234456 52 16 4.0 10.0 0.00 0.00 0.00 44 1014.1
20260506233926 53 15 3.0 10.0 0.00 0.00 0.00 44 1014.0
20260506233433 53 16 5.0 7.0 0.00 0.00 0.00 44 1013.9
20260506232955 53 15 3.0 9.0 0.00 0.00 0.00 44 1014.0
20260506232424 53 15 3.0 9.0 0.00 0.00 0.00 45 1014.0
20260506231931 53 15 4.0 8.0 0.00 0.00 0.00 44 1013.9
20260506231452 53 15 4.0 8.0 0.00 0.00 0.00 44 1014.0
20260506230939 53 15 5.0 6.0 0.00 0.00 0.00 43 1014.1
20260506230448 54 15 3.0 9.0 0.00 0.00 0.00 43 1013.9
20260506225939 54 15 3.0 9.0 0.00 0.00 0.00 44 1013.7
20260506225447 54 15 3.0 8.0 0.00 0.00 0.00 43 1013.5
20260506224933 53 16 2.0 8.0 0.00 0.00 0.00 44 1013.6
20260506224427 53 15 4.0 8.0 0.00 0.00 0.00 44 1013.8
20260506223931 54 16 3.0 6.0 0.00 0.00 0.00 43 1013.6
20260506223419 54 15 2.0 9.0 0.00 0.00 0.00 44 1013.5
20260506222948 54 15 3.0 10.0 0.00 0.00 0.00 43 1013.5
20260506222417 54 17 5.0 10.0 0.00 0.00 0.00 43 1013.6
20260506221952 54 16 4.0 9.0 0.00 0.00 0.00 44 1013.6
20260506221421 54 16 3.0 8.0 0.00 0.00 0.00 43 1013.4
20260506220929 54 17 4.0 8.0 0.00 0.00 0.00 43 1013.5
20260506220418 55 17 4.0 10.0 0.00 0.00 0.00 43 1013.3
20260506215929 56 21 4.0 10.0 0.00 0.00 0.00 42 1013.3
20260506215419 56 360 4.0 9.0 0.00 0.00 0.00 43 1013.2
20260506214926 56 22 5.0 9.0 0.00 0.00 0.00 42 1013.2
20260506214436 56 18 3.0 10.0 0.00 0.00 0.00 43 1013.2
20260506213941 56 17 5.0 12.0 0.00 0.00 0.00 41 1013.1
20260506213436 55 17 4.0 12.0 0.00 0.00 0.00 42 1013.1
20260506212953 55 17 4.0 9.0 0.00 0.00 0.00 41 1013.1
20260506212419 56 16 4.0 9.0 0.00 0.00 0.00 41 1013.1
20260506211928 56 29 3.0 6.0 0.00 0.00 0.00 42 1012.8
20260506211419 55 17 4.0 10.0 0.00 0.00 0.00 42 1013.1
20260506210928 55 16 4.0 10.0 0.00 0.00 0.00 41 1013.1
20260506210436 55 17 4.0 10.0 0.00 0.00 0.00 42 1013.1
20260506205944 56 16 6.0 10.0 0.00 0.00 0.00 40 1013.2
20260506205426 56 19 5.0 10.0 0.00 0.00 0.00 41 1013.2
20260506204915 56 16 5.0 8.0 0.00 0.00 0.00 41 1013.0
20260506204429 55 16 3.0 6.0 0.00 0.00 0.00 40 1013.1
20260506203916 56 16 4.0 10.0 0.00 0.00 0.00 39 1013.3
20260506203426 56 17 4.0 10.0 0.00 0.00 0.00 38 1013.2
20260506202916 56 15 4.0 10.0 0.00 0.00 0.00 39 1013.2
20260506202424 56 17 5.0 13.0 0.00 0.00 0.00 38 1013.5
20260506201913 56 17 5.0 13.0 0.00 0.00 0.00 41 1013.5
20260506201424 56 20 3.0 11.0 0.00 0.00 0.00 40 1013.3
20260506200915 56 23 5.0 11.0 0.00 0.00 0.00 38 1013.5
20260506200422 56 17 5.0 9.0 0.00 0.00 0.00 39 1013.5
20260506195934 56 16 3.0 11.0 0.00 0.00 0.00 40 1013.5
20260506195443 56 16 6.0 16.0 0.00 0.00 0.00 38 1013.5
20260506194929 56 16 4.0 16.0 0.00 0.00 0.00 40 1013.5
20260506194437 55 15 4.0 9.0 0.00 0.00 0.00 40 1013.6
20260506193931 55 17 3.0 12.0 0.00 0.00 0.00 40 1013.7
20260506193418 55 16 3.0 12.0 0.00 0.00 0.00 40 1013.6
20260506192930 55 16 5.0 10.0 0.00 0.00 0.00 40 1013.8
20260506192438 55 17 4.0 8.0 0.00 0.00 0.00 43 1013.7
20260506191947 54 17 3.0 6.0 0.00 0.00 0.00 42 1013.8
20260506191418 54 16 4.0 8.0 0.00 0.00 0.00 42 1013.8
20260506190929 55 17 4.0 8.0 0.00 0.00 0.00 43 1013.8
20260506190435 54 17 1.0 5.0 0.00 0.00 0.00 44 1013.7
20260506185927 54 18 2.0 9.0 0.00 0.00 0.00 42 1013.7
20260506185432 55 17 4.0 10.0 0.00 0.00 0.00 42 1013.7
20260506184940 54 17 4.0 12.0 0.00 0.00 0.00 43 1013.7
20260506184443 54 17 3.0 9.0 0.00 0.00 0.00 45 1013.7
20260506183930 54 19 3.0 9.0 0.00 0.00 0.00 44 1013.8
20260506183440 54 20 4.0 6.0 0.00 0.00 0.00 42 1013.7
20260506182925 54 20 3.0 6.0 0.00 0.00 0.00 42 1013.7
20260506182432 54 19 3.0 10.0 0.00 0.00 0.00 43 1013.7
20260506181941 54 16 4.0 10.0 0.00 0.00 0.00 45 1013.8
20260506181432 54 16 3.0 9.0 0.00 0.00 0.00 43 1013.7
20260506180920 54 18 3.0 8.0 0.00 0.00 0.00 43 1013.6
20260506180429 54 17 4.0 10.0 0.00 0.00 0.00 43 1013.6
20260506175921 54 19 4.0 10.0 0.00 0.00 0.00 41 1013.6
20260506175425 54 16 4.0 8.0 0.00 0.00 0.00 43 1013.7
20260506174936 54 21 2.0 8.0 0.00 0.00 0.00 45 1013.7
20260506174423 54 19 3.0 10.0 0.00 0.00 0.00 42 1013.9
20260506173932 54 21 4.0 10.0 0.00 0.00 0.00 43 1013.9
20260506173440 54 16 3.0 8.0 0.00 0.00 0.00 42 1013.9
20260506172922 54 16 4.0 11.0 0.00 0.00 0.00 43 1014.0
20260506172429 53 27 5.0 11.0 0.00 0.00 0.00 44 1014.0
20260506171916 54 17 5.0 9.0 0.00 0.00 0.00 44 1014.1
20260506171430 54 15 2.0 6.0 0.00 0.00 0.00 44 1013.9
20260506170918 54 17 3.0 8.0 0.00 0.00 0.00 44 1014.1
20260506170425 54 21 1.0 8.0 0.00 0.00 0.00 45 1014.0
20260506165918 54 19 3.0 5.0 0.00 0.00 0.00 44 1014.2
20260506165429 54 20 3.0 8.0 0.00 0.00 0.00 43 1014.2
20260506164919 54 27 3.0 8.0 0.00 0.00 0.00 43 1014.1
20260506164427 54 20 2.0 5.0 0.00 0.00 0.00 45 1014.1
20260506163915 54 22 3.0 8.0 0.00 0.00 0.00 44 1014.1
20260506163424 54 22 3.0 8.0 0.00 0.00 0.00 43 1014.2
20260506162932 54 30 2.0 6.0 0.00 0.00 0.00 45 1014.1
20260506162421 54 26 3.0 6.0 0.00 0.00 0.00 42 1014.0
20260506161928 54 38 2.0 6.0 0.00 0.00 0.00 46 1014.1
20260506161448 54 34 2.0 11.0 0.00 0.00 0.00 43 1013.9
20260506160914 53 38 5.0 11.0 0.00 0.00 0.00 41 1013.9
20260506160422 53 24 2.0 4.0 0.00 0.00 0.00 43 1014.0
20260506155931 53 17 2.0 6.0 0.00 0.00 0.00 45 1013.9
20260506155417 53 20 3.0 6.0 0.00 0.00 0.00 43 1014.1
20260506154927 53 18 2.0 5.0 0.00 0.00 0.00 44 1014.1
20260506154452 53 21 3.0 5.0 0.00 0.00 0.00 43 1014.1
20260506153919 53 17 3.0 5.0 0.00 0.00 0.00 42 1014.1
20260506153428 52 19 2.0 5.0 0.00 0.00 0.00 45 1014.0
20260506152922 52 17 2.0 4.0 0.00 0.00 0.00 43 1014.1
20260506152431 52 19 2.0 4.0 0.00 0.00 0.00 44 1014.0
20260506151918 52 16 2.0 6.0 0.00 0.00 0.00 41 1014.1
20260506151429 52 17 3.0 8.0 0.00 0.00 0.00 44 1014.1
20260506150937 52 17 3.0 8.0 0.00 0.00 0.00 43 1014.2
20260506150447 52 18 3.0 8.0 0.00 0.00 0.00 45 1014.2
20260506145915 52 18 3.0 8.0 0.00 0.00 0.00 45 1014.2
20260506145449 52 16 2.0 8.0 0.00 0.00 0.00 44 1014.1
20260506144914 52 20 1.0 4.0 0.00 0.00 0.00 45 1014.2
20260506144422 52 20 2.0 4.0 0.00 0.00 0.00 45 1014.2
20260506143931 52 19 2.0 6.0 0.00 0.00 0.00 46 1014.2
20260506143419 52 28 2.0 6.0 0.00 0.00 0.00 47 1014.3
20260506142930 52 30 2.0 5.0 0.00 0.00 0.00 48 1014.1
20260506142416 52 360 3.0 5.0 0.00 0.00 0.00 46 1014.2
20260506141924 52 360 2.0 5.0 0.00 0.00 0.00 50 1014.1
20260506141416 51 33 1.0 3.0 0.00 0.00 0.00 51 1014.1
20260506140925 51 32 1.0 3.0 0.00 0.00 0.00 48 1014.2
20260506140414 51 37 0.0 2.0 0.00 0.00 0.00 51 1014.2
20260506135920 50 27 1.0 3.0 0.00 0.00 0.00 51 1014.2
20260506135428 50 40 2.0 3.0 0.00 0.04 0.00 52 1014.0
20260506134918 50 39 1.0 4.0 0.00 0.04 0.00 56 1013.9
20260506134431 50 32 2.0 4.0 0.00 0.04 0.00 56 1013.9
20260506133917 49 52 1.0 2.0 0.00 0.04 0.00 58 1013.7
20260506133450 49 39 0.0 0.0 0.00 0.04 0.00 60 1013.5
20260506132940 48 9 0.0 0.0 0.00 0.04 0.00 63 1013.4
20260506132455 48 9 0.0 0.0 0.00 0.04 0.00 64 1013.4
20260506131942 48 9 0.0 0.0 0.00 0.04 0.00 66 1013.1
20260506131425 47 9 0.0 0.0 0.00 0.04 0.00 66 1013.2
20260506130934 47 9 0.0 0.0 0.00 0.04 0.00 68 1013.1
20260506130422 46 9 0.0 0.0 0.00 0.04 0.00 69 1013.3
20260506125934 46 9 0.0 0.0 0.00 0.04 0.00 69 1013.3
20260506125421 45 9 0.0 0.0 0.00 0.07 0.00 71 1013.2
20260506124952 45 5 0.0 0.0 0.00 0.07 0.00 73 1013.2
20260506124421 44 15 0.0 0.0 0.00 0.07 0.00 74 1013.0
20260506123931 44 15 0.0 0.0 0.00 0.07 0.00 75 1012.9
20260506123440 44 15 0.0 0.0 0.00 0.07 0.00 75 1012.8
20260506122924 43 15 0.0 0.0 0.00 0.07 0.00 75 1012.8
20260506122432 43 15 0.0 0.0 0.00 0.07 0.00 75 1012.9
20260506121919 42 15 0.0 0.0 0.00 0.07 0.00 75 1012.7
20260506121448 42 15 0.0 0.0 0.00 0.07 0.00 76 1012.7
20260506120916 42 15 0.0 0.0 0.00 0.07 0.00 76 1012.7
20260506120424 42 15 0.0 0.0 0.00 0.07 0.00 77 1012.7
20260506115933 41 15 0.0 0.0 0.00 0.07 0.00 77 1012.7
20260506115437 41 15 0.0 0.0 0.00 0.07 0.00 78 1012.6
20260506114924 40 9 0.0 0.0 0.00 0.07 0.00 78 1012.6
20260506114417 40 15 0.0 0.0 0.00 0.07 0.00 78 1012.6
20260506113953 40 15 0.0 0.0 0.00 0.07 0.00 78 1012.6
20260506113440 40 15 0.0 0.0 0.00 0.07 0.00 78 1012.6
20260506112942 40 15 0.0 0.0 0.00 0.07 0.00 78 1012.5
20260506112450 40 15 0.0 0.0 0.00 0.07 0.00 77 1012.5
20260506111916 40 15 0.0 0.0 0.00 0.07 0.00 77 1012.3
20260506111446 40 15 0.0 0.0 0.00 0.07 0.00 76 1012.4
20260506110932 40 15 0.0 0.0 0.00 0.07 0.00 75 1012.4
20260506110420 40 15 0.0 0.0 0.00 0.07 0.00 75 1012.2
20260506105927 40 15 0.0 0.0 0.00 0.07 0.00 74 1012.4
20260506105433 40 15 0.0 0.0 0.00 0.07 0.00 74 1012.2
20260506104922 40 15 0.0 0.0 0.00 0.07 0.00 73 1012.1
20260506104432 40 15 0.0 0.0 0.00 0.07 0.00 73 1012.1
20260506103921 40 15 0.0 0.0 0.00 0.07 0.00 73 1012.0
20260506103428 40 15 0.0 0.0 0.00 0.07 0.00 72 1011.9
20260506102916 40 15 0.0 0.0 0.00 0.07 0.00 72 1011.8
20260506102425 40 15 0.0 0.0 0.00 0.07 0.00 72 1011.7
20260506101933 40 14 0.0 0.0 0.00 0.07 0.00 71 1011.4
20260506101454 41 14 0.0 0.0 0.00 0.07 0.00 71 1011.4
20260506100924 41 14 0.0 0.0 0.00 0.07 0.00 71 1011.4
20260506100429 41 15 0.0 0.0 0.00 0.07 0.00 70 1011.4
20260506095919 41 14 0.0 0.0 0.00 0.07 0.00 70 1011.5
20260506095423 41 14 0.0 0.0 0.00 0.07 0.00 69 1011.5
20260506094931 42 14 0.0 0.0 0.00 0.07 0.00 69 1011.4
20260506094451 42 14 0.0 0.0 0.00 0.07 0.00 69 1011.4
20260506093920 42 14 0.0 0.0 0.00 0.07 0.00 69 1011.6